Погода в Кировском

Россия / Республика Крым     45°32′45″N   33°04′37″E
темп.,
°C
ветер,
м/с
пор.,
м/с
влажн.,
%
обл.,
%
осадки,
мм/ч
давл.,
гПа
погр.,
м
7 мая, пт
пт700:00+10з22805 0.0 101425
03:00+10зсз118211 0.0 101513
06:00+10ссз22935 0.0 101616
09:00+16всв226981 0.0 1017507
12:00+20ю2250100 0.0 10161164
15:00+20ююз554979 0.0 1016816
18:00+17ю576168 0.0 1014313
21:00+12ю51184100 0.0 1014214
8 мая, сб
сб800:00+14ю71472100 0.0 1013321
03:00+14ю71479100 0.0 1011332
06:00+14ю61480100 0.0 1010305
09:00+18ююз6116075 0.0 1011475
12:00+20з77545 0.0 1012898
15:00+15с11117899 0.0 1013718
18:00+13с101378100 0.1 1014904
21:00+11с91283100 0.5 1016786
9 мая, вс
вс900:00+10с71170100 1.0 1017693
03:00+9с8127392 2.3 1019552
06:00+8ссз711705 0.0 1022665
09:00+11ссз89620 0.0 1023991
12:00+13ссз78495 0.0 10251363
15:00+14сз78465 0.0 10261684
18:00+13зсз55505 0.0 1026654
21:00+10з467227 0.0 1028109
10 мая, пн
пн1000:00+9ссз22715 0.0 102819
03:00+8св127296 0.0 102816
06:00+8св33775 0.0 102840
09:00+13ссв57505 0.0 10281221
12:00+15с68431 0.0 10271693
15:00+16ссз59370 0.0 10261984
18:00+15зсз56531 0.0 1024808
21:00+10сз467211 0.0 102783
11 мая, вт
вт1100:00+12ссз4863100 0.0 1023202
03:00+12ссз7106278 0.0 1021558
06:00+12с6106632 0.0 1020486
09:00+13с6966100 0.0 1020525
12:00+17с686143 0.0 10191001
15:00+19с585896 0.0 10171371
18:00+16св686999 0.0 1017855
21:00+13ссв378598 0.1 1017563